Weather History for KEXX - May, 2013

Change the Weather History Date:

Thursday, May 16, 2013

  Actual Average (KINT) Record (KINT)
Temperature  
Mean Temperature 70 °F -  
Max Temperature 81 °F 75 °F 89 °F (1991)
Min Temperature 58 °F 54 °F 34 °F (1973)
Cooling Degree Days 4    
Growing Degree Days 20 (Base 50)    
Moisture  
Dew Point 58 °F    
Average Humidity 68    
Maximum Humidity 100    
Minimum Humidity 38    
Precipitation  
Precipitation 0.00 in - - ()
Sea Level Pressure  
Sea Level Pressure 29.98 in    
Wind  
Wind Speed 1 mph (WSW)    
Max Wind Speed 8 mph    
Max Gust Speed -    
Visibility 10 miles    
Events      
Averages and records for this station are not official NWS values.
T = Trace of Precipitation, MM = Missing Value Source: NWS Daily Summary

Daily Weather History Graph

Daily Weather History Graph

Search for Another Location

Airport or City:

Trip Planner

Search our weather history database for the weather conditions in past years. The results will help you decide how hot, cold, wet, or windy it might be!

Date:

Astronomy

May. 16, 2013 Rise Set
Actual Time 6:14 AM EDT 8:20 PM EDT
Civil Twilight 5:46 AM EDT 8:49 PM EDT
Nautical Twilight 5:11 AM EDT 9:24 PM EDT
Astronomical Twilight 4:34 AM EDT 10:01 PM EDT
Moon 11:43 AM EDT (5/16) 12:43 AM EDT (5/16)
Length of Visible Light 15h 02m
Length of Day
14h 05m
Waxing Crescent, 35% of the Moon is Illuminated
May 16
Waxing Crescent
May 18
First Quarter
May 25
Full
May 31
Last Quarter
Jun 8
New

Hourly Weather History & Observations

Time (EDT) Temp. Heat Index Dew Point Humidity Pressure Visibility Wind Dir Wind Speed Gust Speed Precip Events Conditions
12:15 AM 69.1 °F - 59.7 °F 72% 29.95 in 10.0 mi Calm Calm - N/A   Clear
12:35 AM 65.8 °F - 59.9 °F 81% 29.95 in 10.0 mi Calm Calm - N/A   Clear
12:55 AM 64.0 °F - 59.7 °F 86% 29.95 in 10.0 mi Calm Calm - N/A   Clear
1:15 AM 64.4 °F - 59.5 °F 84% 29.95 in 7.0 mi Calm Calm - N/A   Clear
1:35 AM 65.3 °F - 59.2 °F 81% 29.95 in 10.0 mi Calm Calm - N/A   Clear
1:55 AM 65.1 °F - 59.2 °F 81% 29.94 in 10.0 mi Calm Calm - N/A   Clear
2:15 AM 63.3 °F - 59.0 °F 86% 29.94 in 10.0 mi Calm Calm - N/A   Clear
2:35 AM 64.8 °F - 59.0 °F 82% 29.94 in 10.0 mi Calm Calm - N/A   Clear
2:55 AM 60.6 °F - 59.7 °F 97% 29.94 in 10.0 mi Calm Calm - N/A   Clear
3:15 AM 62.6 °F - 59.4 °F 89% 29.93 in 10.0 mi Calm Calm - N/A   Clear
3:35 AM 61.7 °F - 59.2 °F 91% 29.94 in 10.0 mi Calm Calm - N/A   Clear
3:55 AM 61.0 °F - 60.6 °F 99% 29.93 in 10.0 mi Calm Calm - N/A   Clear
4:15 AM 59.9 °F - 59.9 °F 100% 29.93 in 10.0 mi Calm Calm - N/A   Clear
4:35 AM 59.9 °F - 59.9 °F 100% 29.94 in 10.0 mi Calm Calm - N/A   Clear
4:55 AM 60.8 °F - 60.8 °F 100% 29.94 in 10.0 mi Calm Calm - N/A   Clear
5:15 AM 60.8 °F - 60.8 °F 100% 29.94 in 10.0 mi Calm Calm - N/A   Clear
5:35 AM 60.3 °F - 60.3 °F 100% 29.95 in 10.0 mi Calm Calm - N/A   Clear
5:55 AM 59.2 °F - 59.2 °F 100% 29.95 in 10.0 mi Calm Calm - N/A   Clear
6:15 AM 58.1 °F - 58.1 °F 100% 29.96 in 10.0 mi Calm Calm - N/A   Clear
6:35 AM 60.3 °F - 60.3 °F 100% 29.96 in 10.0 mi Calm Calm - N/A   Clear
6:55 AM 60.8 °F - 59.9 °F 97% 29.97 in 10.0 mi Calm Calm - N/A   Clear
7:15 AM 62.2 °F - 60.4 °F 94% 29.97 in 10.0 mi Calm Calm - N/A   Clear
7:35 AM 62.8 °F - 62.8 °F 100% 29.98 in 10.0 mi Calm Calm - N/A   Clear
7:55 AM 64.0 °F - 61.5 °F 91% 29.99 in 10.0 mi Calm Calm - N/A   Clear
8:15 AM 65.3 °F - 59.0 °F 80% 29.99 in 10.0 mi Calm Calm - N/A   Clear
8:35 AM 66.4 °F - 59.5 °F 79% 30.00 in 10.0 mi Calm Calm - N/A   Clear
8:55 AM 66.6 °F - 62.1 °F 85% 30.00 in 10.0 mi Calm Calm - N/A   Clear
9:15 AM 68.7 °F - 60.3 °F 74% 30.01 in 10.0 mi Calm Calm - N/A   Clear
9:35 AM 71.1 °F - 58.6 °F 65% 30.01 in 10.0 mi Calm Calm - N/A   Clear
9:55 AM 73.9 °F - 58.3 °F 58% 30.01 in 10.0 mi Calm Calm - N/A   Clear
10:15 AM 75.6 °F - 56.3 °F 51% 30.02 in 10.0 mi West 4.6 mph - N/A   Clear
10:35 AM 76.6 °F - 55.6 °F 48% 30.02 in 10.0 mi Calm Calm - N/A   Clear
10:55 AM 77.2 °F - 55.0 °F 46% 30.02 in 10.0 mi WSW 5.8 mph - N/A   Clear
11:15 AM 78.4 °F - 55.6 °F 45% 30.02 in 10.0 mi SW 5.8 mph - N/A   Clear
11:35 AM 78.8 °F - 54.7 °F 43% 30.03 in 10.0 mi Calm Calm - N/A   Clear
11:55 AM 79.2 °F - 53.1 °F 40% 30.02 in 10.0 mi WNW 5.8 mph - N/A   Clear
12:15 PM 80.6 °F 80.3 °F 53.8 °F 39% 30.01 in 10.0 mi WSW 3.5 mph - N/A   Clear
12:35 PM 81.1 °F 80.6 °F 53.4 °F 38% 30.02 in 10.0 mi NW 5.8 mph - N/A   Clear
12:55 PM 81.5 °F 80.8 °F 53.4 °F 38% 30.01 in 10.0 mi West 8.1 mph - N/A   Clear
1:15 PM 81.3 °F 80.7 °F 53.8 °F 38% 30.00 in 10.0 mi WSW 4.6 mph - N/A   Clear
1:35 PM 79.7 °F - 54.3 °F 41% 29.99 in 10.0 mi West 3.5 mph - N/A   Clear
1:55 PM 79.7 °F - 54.5 °F 42% 29.99 in 10.0 mi Calm Calm - N/A   Clear
2:15 PM 79.3 °F - 57.4 °F 47% 29.99 in 10.0 mi West 3.5 mph - N/A   Clear
2:35 PM 79.7 °F - 56.8 °F 45% 29.99 in 10.0 mi WSW 4.6 mph - N/A   Clear
3:15 PM 79.2 °F - 55.6 °F 44% 29.99 in 10.0 mi WSW 3.5 mph - N/A   Clear
3:35 PM 79.0 °F - 56.3 °F 46% 29.98 in 10.0 mi SSW 5.8 mph - N/A   Clear
3:55 PM 80.8 °F 80.8 °F 56.5 °F 43% 29.98 in 10.0 mi WSW 3.5 mph - N/A   Clear
4:15 PM 79.7 °F - 54.7 °F 42% 29.97 in 10.0 mi SW 4.6 mph - N/A   Clear
4:35 PM 81.0 °F 80.8 °F 56.1 °F 42% 29.96 in 10.0 mi WSW 4.6 mph - N/A   Clear
4:55 PM 80.8 °F 80.8 °F 56.3 °F 43% 29.96 in 10.0 mi SW 6.9 mph - N/A   Clear
5:15 PM 81.1 °F 81.0 °F 55.8 °F 42% 29.95 in 10.0 mi SW 4.6 mph - N/A   Clear
5:35 PM 79.7 °F - 55.4 °F 43% 29.96 in 10.0 mi WSW 4.6 mph - N/A   Clear
6:15 PM 78.1 °F - 56.1 °F 47% 29.96 in 10.0 mi Calm Calm - N/A   Clear
6:35 PM 77.2 °F - 56.3 °F 48% 29.96 in 10.0 mi Calm Calm - N/A   Clear
6:55 PM 76.6 °F - 56.3 °F 49% 29.96 in 10.0 mi Calm Calm - N/A   Clear
7:15 PM 75.9 °F - 56.8 °F 51% 29.96 in 10.0 mi WSW 3.5 mph - N/A   Clear
7:35 PM 75.4 °F - 56.8 °F 52% 29.97 in 10.0 mi SW 3.5 mph - N/A   Clear
7:55 PM 74.3 °F - 57.2 °F 55% 29.97 in 10.0 mi SW 3.5 mph - N/A   Clear
8:15 PM 73.6 °F - 57.4 °F 57% 29.98 in 10.0 mi Calm Calm - N/A   Clear
8:35 PM 73.2 °F - 58.5 °F 60% 29.99 in 10.0 mi WSW 3.5 mph - N/A   Clear
8:55 PM 72.9 °F - 59.0 °F 62% 29.99 in 10.0 mi Calm Calm - N/A   Clear
9:15 PM 71.4 °F - 59.2 °F 65% 30.00 in 10.0 mi Calm Calm - N/A   Clear
9:35 PM 70.7 °F - 59.5 °F 68% 30.00 in 10.0 mi Calm Calm - N/A   Clear
9:55 PM 68.5 °F - 59.9 °F 74% 30.01 in 10.0 mi Calm Calm - N/A   Clear
10:15 PM 68.0 °F - 59.9 °F 75% 30.02 in 10.0 mi Calm Calm - N/A   Clear
10:35 PM 67.1 °F - 60.3 °F 79% 30.02 in 10.0 mi Calm Calm - N/A   Clear
10:55 PM 67.1 °F - 60.4 °F 79% 30.02 in 10.0 mi Calm Calm - N/A   Clear
11:15 PM 66.0 °F - 60.6 °F 83% 30.02 in 10.0 mi Calm Calm - N/A   Clear
11:35 PM 65.8 °F - 60.8 °F 84% 30.02 in 10.0 mi Calm Calm - N/A   Clear
11:55 PM 66.0 °F - 61.0 °F 84% 30.02 in 10.0 mi Calm Calm - N/A   Clear